Location: Cerezo de Arriba
(41.2389°N, 3.5585°W)
Time: 04:39:18
(UTC+00:00)

Cosmos 44 - Pass Details

Date: 19 May 2025
Orbit: 588 x 763 km, 65.1° (Epoch: 23 June)

Event Time Altitude Azimuth Distance (km) Brightness Sun altitude
Rises 21:16:41 0° 333° (NNW) 2,911 8.0 -16.7°
Reaches altitude 10° 21:19:01 10° 339° (NNW) 2,026 6.8 -17.0°
Maximum altitude 21:23:25 45° 53° (NE) 894 3.8 -17.5°
Enters shadow 21:25:21 29° 107° (ESE) 1,211 4.1 -17.8°
